スペースウォッチ彗星

P/2017 S4 ( Spacewatch )

English version
Home page
Updated on October 9, 2017

---------------------------------------------------------------------

・ プロフィール

検出日 2017年9月24日
検出光度 18.9等
検出者 Pan-STARRS 1 telescope (Haleakala)

・ 写真集

・ 軌道要素

Epoch 2018 July 21.0 TT = JDT 2458320.5
T 2018 July 2.50051 TT                                  MPCW
q   2.7804234            (2000.0)            P               Q
n   0.08960822     Peri.  219.20867     +0.46926827     -0.87795063
a   4.9458106      Node   203.27695     +0.85847940     +0.47872588
e   0.4378225      Incl.   13.88255     +0.20688260     +0.00492097
P  11.00
From 48 observations 2006 Oct. 11-2017 Sept. 27, mean residual 0".3.

・ 光度変化

        m1 = 11.5 + 5 logΔ + 10.0 log r

---------------------------------------------------------------------

軌道要素はM.P.E.C. 2017-S197に掲載されたものです。
光度グラフはComet for Windowsで作成したものです。

---------------------------------------------------------------------

Copyright(C) Seiichi Yoshida (comet@aerith.net). All rights reserved.